User: anonymous   Login
Location: Beaurevoir
(49.9971°N, 3.3085°E)
Time: 05:01:14
(UTC+00:00)
Language:

Okean 3 - Orbit

View from above orbital plane
View from above orbital plane
View from above satellite
View from above satellite

Ground track
Ground track

The orbit data is extracted from the following two-line orbital elements,

1 21397U 91039A   24204.56151629  .00005589  00000-0  46303-3 0  9997
2 21397  82.5183 191.0339 0015993 182.7992 177.3145 14.98583804775694
Epoch (UTC): 22 July 2024 13:28:35
Eccentricity: 0.0015993
inclination: 82.5183°
perigee height: 560 km
apogee height: 582 km
right ascension of ascending node: 191.0339°
argument of perigee: 182.7992°
revolutions per day: 14.98583804
mean anomaly at epoch: 177.3145°
orbit number at epoch: 77569

The dashed part of the orbit path shows where the satellite is in the earth's shadow,  

DLR